RH
42 72 68 48 44 36 36 36 35 30 38 43 45 48 40 35 35 32 28 27 30 32 35 34 25 22 23 23 18 16 16 16 14 12 9 8 9 27 33 32 31 33 53 59
60 63 49 46 42 38 36 37 39 40 42 45 48 48 41 35 34 30 28 29 32 32 33 28 25 24 22 18 20 22 24 25 24 17 12 9 9 20 35 35 34 34 51 52
65 54 44 46 42 40 44 40 49 58 60 51 48 28 36 32 30 27 28 29 31 30 33 33 28 22 20 22 26 29 30 29 31 29 19 11 9 16 31 39 38 30 44 49
56 46 48 47 45 44 42 51 55 60 74 57 49 34 45 34 33 30 28 28 30 32 34 33 29 26 25 26 29 32 35 36 32 32 32 22 10 9 27 38 42 36 35 50
51 53 51 52 53 47 54 53 57 57 78 76 60 80 51 35 31 32 38 36 35 32 30 29 26 24 26 30 34 37 37 35 29 27 30 33 25 10 10 26 40 45 37 40
53 49 54 53 46 49 50 61 65 66 89 89 66 71 51 58 38 40 42 38 37 35 33 32 30 33 33 30 32 32 30 27 25 23 26 29 34 27 11 11 29 43 48 52
61 61 56 53 59 56 70 83 74 53 91 67 71 69 55 45 42 45 45 38 36 36 35 32 26 24 26 28 29 28 26 23 24 23 23 26 27 36 29 12 13 36 49 55
79 50 63 56 56 64 54 67 72 20 69 63 58 63 63 33 40 37 38 40 30 24 23 25 26 24 23 23 23 24 24 22 22 21 21 23 25 30 38 29 12 17 48 61
45 58 55 53 56 57 61 74 54 58 62 70 63 48 41 43 36 38 28 24 24 24 25 26 31 32 31 30 31 31 30 28 27 26 25 23 24 26 32 40 30 15 16 49
38 42 50 62 58 60 62 52 72 86 52 50 57 42 64 59 43 30 28 26 25 26 27 26 30 34 35 36 37 38 39 40 41 41 40 36 28 25 27 31 38 34 17 17
38 41 51 57 73 76 69 64 58 59 61 52 51 58 64 65 48 30 27 29 29 31 31 27 31 33 34 37 39 40 39 41 43 43 43 43 40 30 28 28 31 39 36 20
49 51 66 54 51 48 53 54 55 69 49 51 54 60 32 53 45 26 27 30 34 35 34 33 33 35 37 40 42 42 43 43 43 43 44 47 44 42 35 32 33 36 39 39
45 50 68 56 54 46 45 48 52 55 70 63 58 38 31 39 39 27 29 32 35 37 37 38 39 42 39 39 41 46 46 46 46 47 48 48 49 47 45 40 38 38 40 42
46 54 44 60 42 39 54 47 51 58 86 60 61 32 32 37 30 29 29 34 36 40 40 42 43 41 37 44 46 44 43 45 50 53 52 52 50 50 51 50 42 41 42 42
58 67 54 56 56 56 55 51 48 71 58 54 38 41 31 36 34 30 31 36 40 43 44 46 46 39 48 51 49 46 46 51 57 59 58 57 53 52 53 52 50 51 48 44
59 58 58 65 55 58 63 57 54 47 46 56 51 49 34 33 32 34 37 42 46 47 49 46 40 47 56 58 52 47 55 57 57 56 58 58 58 56 58 59 59 58 56 51
69 72 72 76 65 64 68 57 53 49 46 42 52 38 33 36 39 40 41 48 52 53 50 46 49 56 60 57 48 43 50 56 57 59 58 58 59 57 59 62 62 60 62 61
59 64 70 85 72 74 46 30 30 42 42 41 36 37 37 41 42 43 48 55 56 55 51 56 59 61 60 54 49 46 48 49 48 48 48 50 51 52 56 57 57 60 62 63
49 62 74 82 83 63 42 33 35 36 36 34 37 38 41 44 48 49 54 55 54 57 60 59 64 62 58 56 57 56 59 60 61 61 61 62 63 57 52 52 57 56 57 61
57 56 70 82 81 77 40 33 31 30 46 42 41 42 43 49 72 64 55 59 59 62 60 64 63 56 53 57 62 64 66 67 65 65 64 63 63 64 65 60 52 56 59 59
77 77 82 85 90 74 45 33 32 49 48 39 43 44 47 61 55 57 58 53 57 61 63 61 31 22 19 18 22 33 51 65 68 67 66 66 65 63 63 65 68 65 56 59
80 89 93 86 90 88 38 39 44 44 38 36 41 43 48 56 59 58 59 63 63 61 64 48 23 12 11 12 12 11 12 16 23 31 44 58 69 72 70 67 65 68 73 69
65 59 74 66 65 43 34 38 36 38 44 46 49 54 58 59 60 60 63 62 65 66 55 36 21 40 44 32 17 15 11 10 9 9 9 10 21 42 64 76 70 66 70 75
44 40 52 50 43 44 42 42 44 49 50 50 54 57 60 62 62 63 59 65 68 67 42 38 57 56 51 42 23 16 15 14 14 13 11 10 11 11 18 45 73 78 72 72
62 62 65 64 56 48 46 48 51 53 54 56 60 60 61 64 65 66 69 71 68 52 48 69 63 62 50 20 16 14 15 17 18 18 20 21 21 20 16 17 29 52 74 82
59 61 68 66 48 56 56 56 56 56 57 58 60 64 67 70 75 74 65 62 60 62 57 58 56 28 19 19 18 16 14 15 18 17 20 24 25 24 24 25 20 21 35 71
Wind_Speed
5 7 2 2 2 0 1 0 3 1 2 6 4 14 18 23 18 18 12 6 10 10 6 5 6 5 6 8 11 12 14 15 16 17 18 19 20 19 17 14 15 17 14 16
6 3 1 3 0 0 1 3 4 5 2 4 6 17 7 7 5 5 10 12 11 9 7 4 3 4 6 8 11 14 16 16 17 18 18 20 21 20 18 16 15 15 14 14
6 3 2 1 5 4 2 1 1 3 7 4 7 6 2 4 7 16 13 11 11 7 4 2 3 5 6 9 13 17 18 18 17 17 17 17 18 18 17 16 15 12 12 14
5 2 3 2 2 1 1 2 2 4 5 3 3 4 5 0 1 2 7 8 8 5 2 3 4 6 8 11 15 17 18 19 18 17 18 19 19 20 19 19 19 17 14 13
3 3 2 4 2 1 2 0 1 1 2 4 3 4 6 2 1 3 8 11 6 2 1 2 5 7 10 15 19 19 19 19 17 16 17 18 18 19 20 19 19 17 14 14
2 1 1 1 1 1 1 4 3 2 3 3 3 5 5 2 1 3 4 8 6 4 4 6 10 14 17 18 19 20 19 16 14 15 17 18 19 19 20 19 20 19 16 13
2 1 1 1 1 3 7 5 3 5 4 4 1 3 7 4 3 7 6 6 7 7 8 10 14 16 15 16 17 19 20 18 17 17 18 19 20 21 21 20 20 20 18 14
4 6 1 0 2 2 2 5 4 4 1 5 2 5 4 2 7 7 6 9 8 7 9 12 16 17 16 16 17 18 19 20 20 21 21 21 22 22 22 22 21 21 19 17
2 3 1 3 3 2 1 0 3 3 3 3 3 4 5 3 3 8 9 8 8 7 10 13 17 18 18 19 21 22 22 22 23 24 26 25 24 23 23 23 23 23 21 20
1 1 1 0 3 2 1 0 1 2 1 4 5 4 4 2 4 3 4 6 4 7 10 12 14 19 20 21 23 24 26 26 26 27 28 28 26 24 23 23 24 25 23 23
2 3 3 3 4 6 1 2 2 2 4 4 2 6 5 8 7 5 6 9 6 9 11 11 15 21 25 26 27 27 28 27 28 30 31 30 29 25 25 24 24 26 26 24
0 3 3 5 1 1 2 3 5 4 3 2 3 6 3 8 11 4 7 7 8 10 10 12 15 21 24 28 27 31 28 25 29 32 31 29 29 29 28 27 25 25 27 26
1 1 3 6 4 3 2 4 4 3 3 5 4 5 1 3 3 8 3 5 9 13 11 12 17 24 29 29 30 30 30 30 30 29 29 28 27 29 29 29 27 27 27 27
2 1 6 6 4 3 4 5 5 5 3 3 6 4 3 4 3 2 2 6 11 15 12 13 21 34 32 30 32 32 32 30 29 29 29 30 30 28 27 28 27 28 28 27
3 3 3 5 8 6 8 10 9 10 11 8 4 6 6 7 4 4 1 8 15 15 13 20 31 35 31 32 32 32 30 27 26 29 28 30 32 27 26 26 26 26 27 27
1 3 3 5 7 6 7 12 13 15 15 15 14 24 13 24 6 2 4 12 17 15 18 27 32 32 31 31 32 31 28 28 28 28 29 28 27 25 26 27 28 28 27 26
5 2 2 5 6 8 8 7 11 5 6 12 13 12 3 4 4 0 10 14 10 14 27 30 32 32 31 31 30 29 28 28 26 25 25 25 26 27 28 30 30 29 27 27
4 4 3 4 5 2 5 2 3 8 7 10 4 4 7 6 2 5 12 4 14 25 28 28 30 29 30 28 25 24 24 24 25 26 27 28 27 27 26 28 28 27 26 26
4 4 2 2 2 8 7 2 4 5 5 5 7 5 6 2 5 8 4 13 23 26 25 25 24 26 24 22 22 21 22 22 23 24 26 28 30 31 29 28 28 27 26 26
1 2 3 2 3 5 3 2 4 2 5 3 7 3 1 2 2 3 10 18 25 23 26 22 22 21 19 18 19 19 21 22 24 25 26 28 30 30 31 30 30 29 26 26
3 1 8 5 4 8 7 7 4 2 4 3 1 5 9 6 11 9 16 25 25 27 23 20 17 18 19 20 20 22 22 22 24 24 25 25 27 30 31 31 29 28 27 27
7 7 5 4 5 9 7 5 3 4 4 9 13 13 12 7 8 14 19 20 23 24 20 16 16 17 18 20 22 23 23 23 24 25 26 27 28 28 29 31 32 30 28 28
2 6 5 10 6 2 18 2 4 8 12 8 6 6 6 10 15 19 20 25 22 18 17 15 16 19 21 24 26 26 26 27 28 29 29 29 29 29 28 29 31 33 32 29
3 7 4 1 5 6 3 12 9 11 13 9 8 10 10 12 18 21 25 22 14 18 16 14 19 24 28 31 31 28 26 28 30 33 33 33 33 34 32 32 30 30 30 33
5 6 3 5 7 16 18 13 26 33 16 10 8 11 14 16 18 19 18 16 18 17 15 21 26 30 31 31 31 30 28 30 33 34 34 35 35 36 36 34 33 33 30 28
14 15 8 11 21 21 26 27 23 21 15 12 16 14 14 16 15 13 14 16 18 20 24 25 24 28 30 32 33 34 32 33 35 37 37 37 37 37 37 38 39 33 32 30
Wind_Direction
41 70 101 154 54 162 181 3 296 289 17 357 227 275 292 295 270 262 251 218 151 155 175 247 255 268 300 318 327 328 333 333 338 342 341 346 350 348 342 334 336 336 335 333
30 91 231 298 321 279 356 9 325 286 33 346 316 295 296 356 9 207 158 144 147 158 186 245 268 299 325 338 343 344 338 334 333 334 338 342 343 346 347 343 335 332 327 329
117 167 223 300 40 22 53 139 28 243 331 254 312 316 359 7 59 82 102 137 156 173 204 259 321 339 350 352 351 349 343 337 327 326 330 332 334 338 341 341 342 335 327 322
79 313 2 354 138 261 180 45 24 357 32 272 49 280 319 280 108 116 118 127 138 146 190 271 304 321 331 337 335 332 332 331 326 321 323 326 329 335 338 340 340 339 330 321
231 168 200 225 162 39 145 341 54 73 7 35 318 72 269 224 327 67 120 118 114 88 344 341 345 341 334 331 328 325 323 324 323 322 320 318 323 326 329 331 333 337 333 325
134 175 103 185 151 129 320 53 38 48 74 24 248 114 292 279 227 132 112 110 86 38 12 351 340 332 330 336 338 338 338 339 328 322 321 319 317 318 320 323 324 328 332 333
60 127 159 60 30 9 63 52 347 359 10 215 253 41 240 283 63 141 144 96 66 48 19 349 333 329 332 338 340 338 338 341 335 329 327 322 316 312 313 316 315 317 321 325
120 329 193 130 73 170 48 129 144 228 244 266 200 239 258 225 124 118 103 84 68 24 20 27 20 15 5 358 354 347 339 336 332 329 329 325 321 313 308 309 307 307 309 311
149 281 31 44 36 85 24 75 144 117 310 38 237 267 314 60 80 82 85 68 51 32 17 14 16 14 9 5 359 351 345 341 338 334 329 324 321 317 310 304 301 301 302 300
193 38 180 127 52 356 154 302 76 1 160 277 291 268 223 188 140 135 95 93 60 17 1 5 8 6 2 358 352 349 345 338 336 335 332 329 320 316 313 308 302 297 297 295
55 103 301 74 196 179 115 263 221 153 155 186 300 273 218 180 190 133 129 111 61 21 9 359 356 355 350 346 343 338 337 334 331 328 326 323 322 313 310 310 310 302 295 293
320 145 226 241 126 93 190 219 162 125 238 227 154 275 232 170 196 89 145 98 52 21 10 2 354 343 338 335 329 326 332 324 319 318 319 318 319 319 310 308 310 308 300 293
95 320 3 336 350 345 223 233 204 112 79 223 146 265 154 134 47 351 136 54 19 2 357 351 341 341 333 331 334 333 329 326 324 324 323 321 319 318 318 308 306 306 303 297
65 216 182 199 210 158 234 227 214 153 144 210 224 250 188 136 165 120 89 8 354 349 350 335 331 338 337 337 333 331 330 329 328 324 322 318 318 314 313 309 304 304 302 297
123 233 238 256 254 226 231 233 216 202 205 192 220 222 233 218 250 196 343 347 340 344 336 332 333 334 336 333 331 331 333 335 332 327 325 322 321 319 318 313 308 308 302 296
172 271 332 285 267 252 262 243 229 234 237 247 257 272 266 277 198 164 345 348 339 337 331 329 328 332 330 329 327 329 331 331 328 322 320 321 322 319 319 316 314 310 306 300
159 173 36 266 329 325 291 246 209 196 209 217 224 244 239 157 163 349 338 337 334 332 332 332 328 326 324 326 327 325 327 330 331 331 330 330 326 321 318 315 311 309 308 305
155 158 160 271 345 299 247 203 205 217 235 218 204 175 166 166 208 294 326 334 335 335 328 324 319 320 323 327 327 325 331 334 336 338 339 339 337 332 326 322 320 318 313 306
171 143 232 235 244 293 290 215 184 182 287 200 200 158 157 169 299 300 192 334 326 322 320 320 315 316 323 330 332 335 342 348 351 353 354 352 349 343 338 331 328 327 319 309
89 111 165 156 205 245 267 157 124 79 280 92 115 116 333 324 292 250 287 316 323 320 322 318 317 321 333 340 340 343 346 348 349 352 353 354 352 350 347 343 338 331 327 321
133 175 219 233 259 278 262 168 118 136 260 145 150 247 250 207 235 284 308 316 316 317 315 314 319 330 342 345 342 342 341 340 340 340 341 342 347 351 352 345 344 340 334 328
172 164 195 178 219 263 159 105 185 200 169 241 252 267 259 258 288 299 306 301 308 312 310 314 324 330 344 350 347 343 342 337 333 333 333 334 336 339 342 344 346 343 340 334
240 199 192 195 217 214 183 146 288 253 310 315 254 222 258 285 296 308 306 308 306 295 300 310 327 336 343 347 346 343 341 335 332 332 330 328 327 327 331 334 337 339 341 336
276 227 240 189 242 204 210 298 312 324 320 284 256 259 275 291 305 304 309 309 284 293 302 316 323 328 327 331 333 337 337 333 333 331 331 331 330 329 328 326 328 329 333 334
244 334 271 271 302 306 300 320 314 315 303 276 257 280 288 293 300 304 303 297 297 300 305 319 322 321 320 321 325 331 334 334 331 329 331 333 332 330 327 325 323 320 321 325
244 259 268 272 289 290 290 298 309 318 292 281 295 286 294 306 304 303 296 293 298 305 305 310 310 313 314 319 321 325 332 332 328 326 328 330 330 330 330 327 321 317 314 312